Regional Weather Roundup
Issued by NWS

Home | Current Version | Previous Version | Text Only | Print | Product List | Glossary Off
Versions: 1 2 3 4 5 6 7 8 9 10 11 12 13 14 15 16 17 18 19 20 21 22 23 24 25 26 27 28 29 30 31 32 33 34 35 36 37 38 39 40 41 42 43 44 45 46 47 48 49 50

000
ASUS43 KFSD 251002
RWRSD

WEATHER ROUNDUP FOR SOUTH DAKOTA
NATIONAL WEATHER SERVICE SIOUX FALLS SD
400 AM CST THU DEC 25 2014

NOTE: "FAIR" INDICATES FEW OR NO CLOUDS BELOW 12,000 FEET WITH NO
SIGNIFICANT WEATHER AND/OR OBSTRUCTIONS TO VISIBILITY.


SDZ001>005-009-010-012>017-251100-
NORTHWEST AND NORTH CENTRAL SOUTH DAKOTA

CITY           SKY/WX    TMP DP  RH WIND       PRES   REMARKS
BUFFALO          N/A     30  27  88 N6        29.48R WCI  24
FAITH            N/A     31  29  92 NE13      29.53R WCI  21
MOBRIDGE       CLOUDY    30  27  88 N5        29.53R WCI  25
$$

SDZ012>016-024>037-041>051-057-063-072>074-251100-
SOUTHWEST AND SOUTH CENTRAL SOUTH DAKOTA

CITY           SKY/WX    TMP DP  RH WIND       PRES   REMARKS
RAPID CTY ARPT FLURRIES  31  30  96 N9        29.51R WCI  23
PIERRE         MIX PCPN  30  25  81 N8        29.52R WCI  22
CUSTER         CLOUDY    29  25  85 E10       29.43R WCI  20
ELLSWORTH AFB  FLURRIES  31  31  97 N8        29.51R WCI  24
PHILIP         CLOUDY    32  26  78 VRB3      29.53R
PINE RIDGE     CLOUDY    33  26  75 E6        29.44F WCI  28
WINNER         FAIR      30  24  78 NW6       29.48R WCI  24
$$

SDZ004>011-016>023-039-040-251100-
NORTHEAST SOUTH DAKOTA

CITY           SKY/WX    TMP DP  RH WIND       PRES   REMARKS
ABERDEEN       CLOUDY    29  26  89 CALM      29.55R
WATERTOWN      CLOUDY    27  24  89 S6        29.51S WCI  20
SISSETON         N/A     31  27  85 W3        29.54R
$$

SDZ017-020-022-023-036>040-048>070-251100-
SOUTHEAST SOUTH DAKOTA

CITY           SKY/WX    TMP DP  RH WIND       PRES   REMARKS
SIOUX FALLS    PTCLDY    27  24  89 S7        29.55R WCI  19
HURON          MOCLDY    26  23  88 CALM      29.54R
MITCHELL       CLOUDY    27  25  92 E6        29.52F WCI  20
YANKTON        MOCLDY    27  23  86 E5        29.55S WCI  21
$$

ABBREVIATIONS USED IN REMARKS
   TC - TEMPERATURE IN CELSIUS
  WCI - WIND CHILL INDEX
   HX - HEAT INDEX
  VSB - VISIBILITY



USA.gov is the U.S. government's official web portal to all federal, state and local government web resources and services.